SBI1035 UNOO-UNNT

Flight info

Callsign SBI1035
Flight time 0h 53m
Altitude 39000
Route RUMOD6C RUMOD A844 BIKMI R234 ABESA B944 GOLIM GOLIM1K
Aircraft A319/M-SDE3FGHIRWY/LB1

Departure

Time 2026-04-30 13:33
Airport Omsk Central Airport (UNOO)

Arrival

Time 2026-04-30 14:26
Airport Novosibirsk Tolmachevo Airport (UNNT)
Time Latitude Longitude Altitude Speed Heading
2026-04-30 13:23 54.95881 73.30671 314 ft 0 kts 268°
2026-04-30 13:28 54.95880 73.30655 315 ft 3 kts 266°
2026-04-30 13:28 54.95934 73.30513 316 ft 12 kts 321°
2026-04-30 13:28 54.96010 73.30406 315 ft 16 kts 321°
2026-04-30 13:29 54.96175 73.30089 317 ft 18 kts 260°
2026-04-30 13:29 54.96119 73.29649 319 ft 19 kts 257°
2026-04-30 13:30 54.96172 73.29252 321 ft 7 kts 348°
2026-04-30 13:31 54.96184 73.29248 321 ft 3 kts 348°
2026-04-30 13:31 54.96384 73.29166 321 ft 17 kts 346°
2026-04-30 13:32 54.96503 73.29448 321 ft 37 kts 78°
2026-04-30 13:32 54.96851 73.32012 337 ft 165 kts 76°
2026-04-30 13:33 54.97417 73.36205 1422 ft 191 kts 77°
2026-04-30 13:33 54.98041 73.41303 2470 ft 240 kts 85°
2026-04-30 13:34 54.98112 73.44313 3300 ft 253 kts 89°
2026-04-30 13:34 54.98124 73.53654 4124 ft 260 kts 90°
2026-04-30 13:35 54.98127 73.56826 4946 ft 262 kts 90°
2026-04-30 13:35 54.98138 73.63237 7009 ft 268 kts 91°
2026-04-30 13:36 54.98147 73.69923 8737 ft 284 kts 91°
2026-04-30 13:36 54.98152 73.73416 9568 ft 292 kts 92°
2026-04-30 13:36 54.98159 73.80849 10645 ft 328 kts 92°
2026-04-30 13:37 54.98164 73.84908 11272 ft 339 kts 92°
2026-04-30 13:37 54.98176 73.93241 12846 ft 351 kts 92°
2026-04-30 13:38 54.98179 74.01881 14357 ft 362 kts 92°
2026-04-30 13:38 54.98179 74.06299 15044 ft 367 kts 92°
2026-04-30 13:38 54.98175 74.15304 16416 ft 377 kts 92°
2026-04-30 13:39 54.98155 74.24544 17783 ft 386 kts 92°
2026-04-30 13:39 54.98125 74.33997 19033 ft 395 kts 92°
2026-04-30 13:40 54.98110 74.38748 19616 ft 399 kts 92°
2026-04-30 13:40 54.98096 74.43607 20213 ft 403 kts 92°
2026-04-30 13:40 54.98079 74.48511 20801 ft 407 kts 92°
2026-04-30 13:40 54.98057 74.53466 21385 ft 411 kts 92°
2026-04-30 13:41 54.98032 74.58470 21970 ft 415 kts 92°
2026-04-30 13:41 54.98006 74.63522 22549 ft 420 kts 92°
2026-04-30 13:41 54.97980 74.68633 23119 ft 424 kts 92°
2026-04-30 13:41 54.97952 74.73794 23680 ft 428 kts 92°
2026-04-30 13:42 54.97919 74.79001 24153 ft 432 kts 91°
2026-04-30 13:42 54.97882 74.84248 24623 ft 435 kts 91°
2026-04-30 13:42 54.97804 74.94860 25545 ft 441 kts 91°
2026-04-30 13:43 54.97761 75.00147 25994 ft 444 kts 91°
2026-04-30 13:43 54.97713 75.05539 26444 ft 447 kts 91°
2026-04-30 13:43 54.97663 75.10969 26884 ft 450 kts 91°
2026-04-30 13:43 54.97612 75.16430 27315 ft 453 kts 91°
2026-04-30 13:44 54.97560 75.21934 27747 ft 456 kts 91°
2026-04-30 13:44 54.97506 75.27480 28177 ft 459 kts 91°
2026-04-30 13:44 54.97449 75.33051 28602 ft 462 kts 91°
2026-04-30 13:44 54.97386 75.38662 29025 ft 465 kts 91°
2026-04-30 13:45 54.97242 75.49907 29857 ft 470 kts 91°
2026-04-30 13:45 54.97167 75.55632 30239 ft 473 kts 91°
2026-04-30 13:45 54.97089 75.61369 30567 ft 476 kts 91°
2026-04-30 13:46 54.97010 75.67147 30892 ft 479 kts 91°
2026-04-30 13:46 54.96929 75.72962 31208 ft 482 kts 91°
2026-04-30 13:46 54.96845 75.78807 31520 ft 485 kts 91°
2026-04-30 13:46 54.96759 75.84691 31846 ft 487 kts 91°
2026-04-30 13:47 54.96670 75.90582 32288 ft 486 kts 90°
2026-04-30 13:47 54.96575 75.96478 32724 ft 486 kts 90°
2026-04-30 13:47 54.96477 76.02368 33161 ft 486 kts 90°
2026-04-30 13:47 54.96379 76.08257 33593 ft 486 kts 90°
2026-04-30 13:48 54.96281 76.14075 34033 ft 486 kts 90°
2026-04-30 13:48 54.96175 76.19969 34440 ft 485 kts 90°
2026-04-30 13:48 54.96064 76.25840 34848 ft 484 kts 90°
2026-04-30 13:48 54.95949 76.31684 35254 ft 483 kts 90°
2026-04-30 13:49 54.95830 76.37529 35651 ft 482 kts 90°
2026-04-30 13:49 54.95714 76.43334 36039 ft 480 kts 90°
2026-04-30 13:49 54.95600 76.49068 36413 ft 479 kts 91°
2026-04-30 13:49 54.95483 76.54857 36782 ft 478 kts 91°
2026-04-30 13:50 54.95360 76.60624 37127 ft 477 kts 91°
2026-04-30 13:50 54.95109 76.72157 37734 ft 478 kts 91°
2026-04-30 13:50 54.94982 76.77960 37873 ft 481 kts 91°
2026-04-30 13:51 54.94850 76.83797 38013 ft 485 kts 91°
2026-04-30 13:51 54.94711 76.89692 38157 ft 488 kts 91°
2026-04-30 13:51 54.94564 76.95598 38301 ft 491 kts 91°
2026-04-30 13:51 54.94413 77.01548 38443 ft 494 kts 91°
2026-04-30 13:52 54.94257 77.07532 38594 ft 496 kts 91°
2026-04-30 13:52 54.94154 77.11506 38695 ft 498 kts 91°
2026-04-30 13:52 54.93995 77.17550 38823 ft 500 kts 91°
2026-04-30 13:52 54.93834 77.23614 38940 ft 503 kts 91°
2026-04-30 13:53 54.93668 77.29702 39079 ft 504 kts 91°
2026-04-30 13:53 54.93501 77.35796 39123 ft 505 kts 91°
2026-04-30 13:53 54.93160 77.48025 39123 ft 506 kts 91°
2026-04-30 13:54 54.92816 77.60238 39124 ft 506 kts 90°
2026-04-30 13:54 54.93386 77.72293 39127 ft 503 kts 81°
2026-04-30 13:55 54.94240 77.84452 39127 ft 503 kts 81°
2026-04-30 13:55 54.95078 77.96529 39138 ft 503 kts 81°
2026-04-30 13:56 54.95890 78.08561 39145 ft 504 kts 81°
2026-04-30 13:56 54.96686 78.20683 39152 ft 504 kts 81°
2026-04-30 13:57 54.97473 78.32790 39135 ft 503 kts 81°
2026-04-30 13:57 54.98257 78.44879 39134 ft 503 kts 81°
2026-04-30 13:58 54.99404 78.63035 39141 ft 502 kts 81°
2026-04-30 13:59 55.00146 78.75133 39141 ft 502 kts 81°
2026-04-30 13:59 55.00876 78.87195 39127 ft 494 kts 81°
2026-04-30 13:59 55.01221 78.92997 39046 ft 481 kts 81°
2026-04-30 14:00 55.01565 78.98821 38759 ft 474 kts 81°
2026-04-30 14:00 55.02235 79.10166 37605 ft 470 kts 81°
2026-04-30 14:00 55.02564 79.15749 36988 ft 469 kts 81°
2026-04-30 14:01 55.02897 79.21413 36337 ft 469 kts 81°
2026-04-30 14:01 55.03223 79.27046 35858 ft 465 kts 81°
2026-04-30 14:01 55.03539 79.32621 35404 ft 460 kts 81°
2026-04-30 14:01 55.03848 79.38152 34958 ft 456 kts 81°
2026-04-30 14:02 55.04149 79.43628 34532 ft 452 kts 81°
2026-04-30 14:02 55.04445 79.49051 34094 ft 447 kts 81°
2026-04-30 14:02 55.04739 79.54427 33605 ft 443 kts 81°
2026-04-30 14:02 55.05029 79.59763 33269 ft 441 kts 81°
2026-04-30 14:03 55.05315 79.65083 33005 ft 440 kts 81°
2026-04-30 14:03 55.05599 79.70379 32740 ft 438 kts 81°
2026-04-30 14:03 55.05880 79.75667 32478 ft 436 kts 81°
2026-04-30 14:03 55.06159 79.80928 32222 ft 435 kts 81°
2026-04-30 14:04 55.06434 79.86164 31963 ft 433 kts 81°
2026-04-30 14:04 55.06709 79.91391 31708 ft 431 kts 82°
2026-04-30 14:04 55.06980 79.96593 31456 ft 430 kts 82°
2026-04-30 14:04 55.07248 80.01772 31206 ft 428 kts 82°
2026-04-30 14:05 55.07515 80.06937 30958 ft 427 kts 82°
2026-04-30 14:05 55.07776 80.12087 30717 ft 425 kts 82°
2026-04-30 14:05 55.08033 80.17211 30472 ft 422 kts 82°
2026-04-30 14:05 55.08281 80.22232 30047 ft 419 kts 82°
2026-04-30 14:06 55.08526 80.27278 29584 ft 416 kts 82°
2026-04-30 14:06 55.09010 80.37267 28744 ft 409 kts 82°
2026-04-30 14:07 55.09480 80.47100 27916 ft 403 kts 83°
2026-04-30 14:07 55.09710 80.51959 27498 ft 401 kts 83°
2026-04-30 14:07 55.09939 80.56800 27067 ft 398 kts 83°
2026-04-30 14:08 55.10384 80.66365 26221 ft 393 kts 83°
2026-04-30 14:08 55.10598 80.71113 25787 ft 391 kts 83°
2026-04-30 14:08 55.11010 80.80474 25184 ft 378 kts 83°
2026-04-30 14:09 55.11210 80.85032 24767 ft 376 kts 83°
2026-04-30 14:09 55.11411 80.89589 24290 ft 376 kts 83°
2026-04-30 14:09 55.11785 80.98701 23341 ft 375 kts 86°
2026-04-30 14:10 55.11860 81.03184 22911 ft 373 kts 88°
2026-04-30 14:10 55.11871 81.07695 22484 ft 370 kts 89°
2026-04-30 14:10 55.11856 81.12179 22059 ft 368 kts 89°
2026-04-30 14:10 55.11837 81.16633 21641 ft 366 kts 89°
2026-04-30 14:11 55.11823 81.21063 21222 ft 364 kts 89°
2026-04-30 14:11 55.11818 81.25480 20809 ft 362 kts 89°
2026-04-30 14:11 55.11820 81.29868 20399 ft 361 kts 89°
2026-04-30 14:11 55.11827 81.34247 19982 ft 359 kts 89°
2026-04-30 14:12 55.11839 81.38602 19583 ft 358 kts 89°
2026-04-30 14:12 55.11850 81.42959 19176 ft 357 kts 89°
2026-04-30 14:12 55.11855 81.47293 18774 ft 356 kts 90°
2026-04-30 14:12 55.11856 81.50159 18508 ft 356 kts 90°
2026-04-30 14:13 55.11856 81.55934 17935 ft 354 kts 90°
2026-04-30 14:13 55.11855 81.60216 17546 ft 352 kts 90°
2026-04-30 14:13 55.11852 81.64478 17154 ft 349 kts 90°
2026-04-30 14:13 55.11847 81.68708 16773 ft 347 kts 90°
2026-04-30 14:14 55.11839 81.72915 16393 ft 345 kts 90°
2026-04-30 14:14 55.11828 81.77102 16014 ft 344 kts 90°
2026-04-30 14:14 55.11816 81.81269 15644 ft 342 kts 90°
2026-04-30 14:14 55.11804 81.85419 15278 ft 341 kts 90°
2026-04-30 14:15 55.11794 81.89556 14903 ft 340 kts 90°
2026-04-30 14:15 55.11781 81.93672 14532 ft 339 kts 90°
2026-04-30 14:15 55.11768 81.97777 14156 ft 338 kts 90°
2026-04-30 14:15 55.11751 82.01874 13775 ft 337 kts 90°
2026-04-30 14:16 55.11734 82.05949 13386 ft 334 kts 90°
2026-04-30 14:16 55.11718 82.09944 13021 ft 332 kts 90°
2026-04-30 14:16 55.11700 82.13962 12643 ft 330 kts 90°
2026-04-30 14:16 55.11680 82.17947 12271 ft 327 kts 90°
2026-04-30 14:17 55.11657 82.21909 11893 ft 325 kts 90°
2026-04-30 14:17 55.11633 82.25843 11511 ft 323 kts 90°
2026-04-30 14:17 55.11607 82.29753 11135 ft 321 kts 90°
2026-04-30 14:17 55.11581 82.33636 10741 ft 319 kts 90°
2026-04-30 14:18 55.11557 82.37508 10349 ft 318 kts 90°
2026-04-30 14:18 55.11537 82.41348 10041 ft 312 kts 89°
2026-04-30 14:18 55.12200 82.48628 9177 ft 302 kts 78°
2026-04-30 14:19 55.13025 82.55743 8381 ft 297 kts 78°
2026-04-30 14:19 55.13482 82.59241 7987 ft 295 kts 75°
2026-04-30 14:19 55.14022 82.62675 7594 ft 292 kts 73°
2026-04-30 14:20 55.14600 82.66071 7231 ft 289 kts 72°
2026-04-30 14:20 55.15174 82.69444 6813 ft 288 kts 75°
2026-04-30 14:20 55.15044 82.76239 5773 ft 279 kts 110°
2026-04-30 14:21 55.14236 82.79244 5459 ft 277 kts 117°
2026-04-30 14:21 55.13368 82.82238 5159 ft 276 kts 117°
2026-04-30 14:21 55.11647 82.88180 4479 ft 273 kts 120°
2026-04-30 14:22 55.10371 82.90643 3725 ft 275 kts 146°
2026-04-30 14:22 55.06884 82.91911 3024 ft 241 kts 192°
2026-04-30 14:22 55.05391 82.90925 2929 ft 221 kts 211°
2026-04-30 14:23 55.03455 82.87303 2590 ft 193 kts 243°
2026-04-30 14:23 55.02868 82.83171 2146 ft 157 kts 259°
2026-04-30 14:24 55.02596 82.79693 1633 ft 136 kts 258°
2026-04-30 14:24 55.02431 82.78091 1405 ft 133 kts 259°
2026-04-30 14:25 55.02185 82.74928 1148 ft 133 kts 259°
2026-04-30 14:25 55.01872 82.71783 832 ft 132 kts 261°
2026-04-30 14:26 55.01575 82.68644 504 ft 131 kts 260°
2026-04-30 14:26 55.01426 82.67092 388 ft 124 kts 260°
2026-04-30 14:26 55.01268 82.65306 373 ft 45 kts 261°
2026-04-30 14:27 55.01217 82.64773 373 ft 44 kts 260°
2026-04-30 14:27 55.01170 82.64256 375 ft 42 kts 261°
2026-04-30 14:27 55.01097 82.63989 375 ft 18 kts 172°
2026-04-30 14:28 55.00942 82.64058 373 ft 8 kts 90°
2026-04-30 14:28 55.00949 82.64153 373 ft 8 kts 81°
2026-04-30 14:28 55.00958 82.64262 373 ft 10 kts 86°
2026-04-30 14:28 55.00957 82.64342 373 ft 0 kts 91°